Tracking 20092 objects as of 14-Dec-2019
HD Live streaming from Space Station
objects crossing your sky now

COSMOS 2251 DEB

Track COSMOS 2251 DEB now!
10-day predictions


NORAD ID: 33908
Int'l Code: 1993-036DM
Perigee: 740.1 km
Apogee: 1,116.5 km
Inclination: 73.8 °
Period: 103.4 minutes
Semi major axis: 7299 km
RCS: 0.0438 m2 (small)
Launch date: June 16, 1993
Source: Commonwealth of Independent States (former USSR) (CIS)
Launch site: PLESETSK MISSILE AND SPACE COMPLEX (PKMTR)

Note: This is SATELLITE DEBRIS
aabbcc
Your satellite tracking list
Your tracking list is empty




NASA's NSSDC Master Catalog

Two Line Element Set (TLE):
1 33908U 93036DM  19347.67395080  .00000245  00000-0  15957-3 0  9997
2 33908  73.8471  65.4730 0257821 124.1547 238.4323 13.92145498548883
Source of the keplerian elements: AFSPC